Tracking 25612 objects as of 20-May-2022
HD Live streaming from Space Station
objects crossing your sky now

STARLINK-1205

Track STARLINK-1205 now!
10-day predictions
STARLINK-1205 is classified as:


NORAD ID: 45184
Int'l Code: 2020-012G
Perigee: 552.9 km
Apogee: 555.8 km
Inclination: 53.1 °
Period: 95.6 minutes
Semi major axis: 6925 km
RCS: Unknown
Launch date: February 17, 2020
Source: United States (US)
Launch site: AIR FORCE EASTERN TEST RANGE (AFETR)
aabbcc
Your satellite tracking list
Your tracking list is empty




NASA's NSSDC Master Catalog

Two Line Element Set (TLE):
1 45184U 20012G   22140.52603984  .00000905  00000-0  79664-4 0  9993
2 45184  53.0559 142.8187 0002062  47.0499 313.0662 15.06394979124770
Source of the keplerian elements: AFSPC